Погода Преображение

Погода Преображение : погода сейчас, прогноз погоды и архив. Всё, что Вы хотите узнать о погоде Преображение!

Хотите узнать прогноз погоды Преображение? Тогда Вам сюда: Погода Преображение

Поиск расширенной информации на нашем сайте:

Другие новости

Новости СМИ2

Главная страница сайта

Новости сайта

02.10.2013

Напоминаем, что на нашем новом сайте вы можете получить высокодетализированные прогнозы погоды по пунктам России, СНГ и мира (включающие важные для авиации метеовеличины, такие как направление и скорость ветра, видимость, явления погоды, количество и форма облачности, нижняя и верхняя граница облачности), а также ознакомиться с разнообразными материалами по авиационной метеорологии и подборкой полезных ссылок на эту тему.

Сайт Метеоцентр.Азия посвящён разработке технологий оптимизации авиаметеорологического обслуживания, включая проектирование и перспективное создание нескольких автоматизированных авиаметеорологических систем:
- система выпуска высокодетальных прогностических карт явлений погоды для нижнего воздушного пространства по России и ближнему зарубежью;
- система верификации прогнозов TAF (выпускаемых синоптиками официальных АМСГ РФ и ближнего зарубежья) и AUTOTAF (выпускаемых сайтом Метеоцентр.Азия) - выявление ошибок, онлайн-сопоставление с фактической погодой METAR, автоматическое внесение коррективов в прогнозы при резком отклонении фактической погоды от прогноза, подсчёт оправдываемости прогнозов по элементам и в целом;
- система обработки, анализа и отображения авиаметеорологической информации для применения провайдерами метеорологической информации.

Рекомендуем: Правильная регулировка пластикового окна.

Погода Преображение - сегодня

Время (UTC), дата Ветер
(°,м/с) 
Видим.   Явления Облачность Т
(°С)
Тd
(°С)
f(%) Тe
(°С)
Pmin
(гПа)
dP
(гПа)
Po
(мм)
O2
(г/м3)
Тmin Tmax R s Состояние
почвы
21 27.03.17 020 (С) 20000 м    1/0 верхняя 
[Cs]
-0.6 -8.1 57 -3  1017.4  0.2  759  307  -1         
00 28.03.17 тихо ()   20000 м    ясно 
+4.8 -4.7 50 +5  1017.6  0.4  759  301           
03 28.03.17 200 (Ю) 20000 м    8/8 600 м 
[Cu med, cong]
+3.3 -1.7 70 +2  1016.7  -0.9  759  302           
06 28.03.17 250 (З) 20000 м    9/9 600 м кучево-дожд. 
[Cb cap]
+8 -1.8 50 +9  1014.9  -1.8  757  297           
09 28.03.17 170 (Ю) 20000 м    10/0 средняя 
[As trans]
+4.4 -2.3 62 +5  1016.4  1.5  758  301    +8.7       
12 28.03.17 030 (СВ) 20000 м    ясно 
+4.5 -4.4 52 +4  1017.9  1.5  759  302           
15 28.03.17 тихо ()   20000 м    ясно 
+1.7 -3.9 66 +2  1017.8  -0.7  759  305           
18 28.03.17 110 (В) н/о    н/о 
+2 -3.8 65 +3  1016.5  1.5  758  304           
21 28.03.17 020 (С) 20000 м    ясно 
+0.3 -4.8 69 -2  1016.3  -0.2  758  306  -0.2         
00 29.03.17 150 (ЮВ) 20000 м    10/0 средняя 
[Ac und]
+4.6 -2.5 60 +5  1016.3  0.1  758  301           
03 29.03.17 200 (Ю) 20000 м    3/1 600 м средняя 
[Cu hum|Ac trans]
+6.3 -1.6 57 +5  1015.6  -0.7  758  299           
06 29.03.17 210 (ЮЗ) 20000 м    1/1 600 м 
[Cu hum]
+5 +2.6 84 +5  1014  -1.6  757  299           
09 29.03.17 360 (С) 20000 м  {туман}  8/3 600 м средняя 
[Sc|Ac trans]
+5.3 +0.4 71 +6  1014.1  0.1  757  299    +6.9       
12 29.03.17 080 (В) 0500 м  туман  ясно 
+0.8 +0.6 99 +1  1015.7  1.5  758  304           
15 29.03.17 060 (СВ) 0500 м  туман  ясно 
-0.6 -0.6 100 1015.4  -0.3  758  306           
18 29.03.17 030 (СВ) 10 км  слаб. ливневой дождь{туман}  10/10 600 м кучево-дожд. 
[Cb cap]
+0.6 +0.6 100 1015.2  -0.2  757  304           
21 29.03.17 120 (ЮВ) 20000 м  {ливн. осадки}  8/8 600 м 
[Sc]
+1.4 +0.2 92 +2  1015  -0.2  757  304  -0.9    0.5     
00 30.03.17 тихо ()   20000 м  слаб. ливневой дождь  10/10 600 м кучево-дожд. 
[Cb cap]
+2 +0.9 92 +2  1016.5  1.5  758  303           
03 30.03.17 220 (ЮЗ) 20000 м  {ливн. осадки}  9/9 600 м 
[Sc]
+2.4 +0.7 89 +2  1018  1.5  759  303           
06 30.03.17 200 (Ю) 20000 м  {ливн. осадки}  8/8 600 м 
[Sc]
+3.6 +1.5 86 +3  1019.5  1.5  761  302           
09 30.03.17 100 (В) 20000 м  {ливн. осадки}  8/8 600 м 
[Sc]
+1.9 +0.2 88 +1  1021.7  2.2  762  305    +4.5  0.0     
12 30.03.17 тихо ()   20000 м  {ливн. осадки}  ясно 
+0.3 -0.5 94 1023.5  1.8  764  307           
15 30.03.17 020 (С) 0500 м  туман  ясно 
-0.7 -1.2 96 -3  1024  0.4  764  309           
18 30.03.17 020 (С) 0500 м  туман  ясно 
-1.3 -1.9 96 -3  1023.5  -0.5  764  309           
21 30.03.17 010 (С) 20000 м  {туман}  ясно 
-2 -2.9 94 -3  1022.8  -0.7  763  310  -2.2         
Время (UTC), дата Ветер
(°,м/с) 
Видим.   Явления Облачность Т
(°С)
Тd
(°С)
f(%) Тe
(°С)
Pmin
(гПа)
dP
(гПа)
Po
(мм)
O2
(г/м3)
Тmin Tmax R s Состояние
почвы

Для получения пояснительной информации подведите курсор к названию столбца.

ПОГОДА Преображение - архив

Всё, что Вы хотите узнать о погоде Преображение - удобно и подробно!

Выберите нужную дату (начиная с 1 января 2015* года) и нажмите кнопку "Найти".
Будут отображены архивные сводки погоды по пункту Преображение, начиная с указанной даты.


Отображать данные в формате CSV (для использования в таблицах Excel)


Внимание! Наш архив погоды предназначен исключительно для личного некоммерческого использования в познавательных целях. Если Вам необходимы официальные справки о состоянии погоды (для производственных, юридических, коммерческих и т.п. целей), обращайтесь в органы Росгидромета.

*Примечание: данная дата относится к архиву по метеостанциям СССР (Россия, СНГ, Балтия).
Архив по метеостанциям Зарубежной Европы и Азии (кроме Китая) хранится 10 дней, по другим регионам земного шара (Китай, Африка, Америка, Австралия, Океания) - 1 день.

Преображение - район местоположения метеостанции


Название, широта, долгота, высота метеостанции:
Преображение 42.9°ш. 133.9°д. 43 м над ур. моря [Российская Федерация]

Дополнительная информация

В oтличие oт бoльшинства пoгoдных сайтoв мы публикуем пoдрoбную метеoинфoрмацию в детальнoм прoфессиoнальнoм фoрмате.

Характеристики температуры и влажнoсти вoздуха измеряются на высoте 2 м в тени вдали oт зданий и деревьев.
Скoрoсть ветра измеряется на высoте 10 м (на урoвне рoста челoвека скoрoсть ветра ниже в 1.5-2 раза). Если метеoстанция нахoдится в гoрoде или в лесу, тo скoрoсть ветра занижена на 2-4 м/с пo сравнению с oткрытым местoм. Скoрoсть ветра над акватoриями крупных рек и oзёр, а также на вершинах хoлмoв на 2-5 м/с выше, чем в oбычных услoвиях.
Атмoсфернoе давление в разных тoчках местнoсти мoжет значительнo oтличаться oт давления на метеoстанции, в зависимoсти oт услoвий рельефа (при пoдъёме на 10 м давление пoнижается примернo на 1 мм рт.ст.).